This demonstration page uses our WeatherBlox Daily Observations layout. Learn more.

Left ArrowRight Arrow

Hourly Observations for November 1, 2022

Temp ( °F °C ) Dew Point ( °F °C ) Humidity (%) Winds ( mph kmh ) Pressure ( in mb ) Visibility ( mi km ) Precip ( " mm )
12:56 am 00:56 Clear 50 10 33 0.6 52 52 SSW 8 13 29.92 1013 10 16 0.00 0.00
1:56 am 01:56 Clear 46 7.8 33 0.6 60 60 SSW 7 11 29.92 1013 10 16 0.00 0.00
2:56 am 02:56 Clear 47 8.3 33 0.6 58 58 SSW 10 17 29.92 1013 10 16 0.00 0.00
3:56 am 03:56 Clear 42 5.6 33 0.6 70 70 SSW 6 9 29.92 1013 10 16 0.00 0.00
4:56 am 04:56 Clear 44 6.7 33 0.6 65 65 SW 5 7 29.92 1013 10 16 0.00 0.00
5:56 am 05:56 Clear 42 5.6 33 0.6 70 70 WSW 3 6 29.93 1014 10 16 0.00 0.00
6:56 am 06:56 Clear 37 2.8 32 0 82 82 SSW 8 13 29.97 1015 10 16 0.00 0.00
7:56 am 07:56 Clear 39 3.9 33 0.6 79 79 SW 6 9 29.97 1015 10 16 0.00 0.00
8:56 am 08:56 Sunny 41 5 34 1.1 76 76 SW 8 13 29.99 1016 10 16 0.00 0.00
9:56 am 09:56 Sunny 48 8.9 37 2.8 66 66 SW 6 9 29.99 1016 10 16 0.00 0.00
10:56 am 10:56 Sunny 55 12.8 39 3.9 55 55 SSW 6 9 29.98 1015 10 16 0.00 0.00
11:56 am 11:56 Sunny 64 17.8 39 3.9 40 40 S 6 9 29.97 1015 10 16 0.00 0.00
12:56 pm 12:56 Sunny 70 21.1 40 4.4 33 33 SSE 13 20 29.95 1014 10 16 0.00 0.00
1:56 pm 13:56 Sunny 73 22.8 39 3.9 29 29 S 15 24 29.93 1013 10 16 0.00 0.00
2:56 pm 14:56 Sunny 75 23.9 40 4.4 28 28 S 21 33 29.90 1013 10 16 0.00 0.00
3:56 pm 15:56 Sunny 75 23.9 42 5.6 31 31 S 21 33 29.90 1013 10 16 0.00 0.00
4:56 pm 16:56 Sunny 75 23.9 41 5 29 29 S 21 33 29.89 1012 10 16 0.00 0.00
5:56 pm 17:56 Sunny 72 22.2 43 6.1 35 35 S 15 24 29.90 1012 10 16 0.00 0.00
6:56 pm 18:56 Clear 67 19.4 42 5.6 40 40 SSE 15 24 29.92 1013 10 16 0.00 0.00
7:56 pm 19:56 Clear 63 17.2 41 5 44 44 SSE 14 22 29.94 1014 10 16 0.00 0.00
8:56 pm 20:56 Clear 61 16.1 41 5 48 48 SSE 16 26 29.94 1014 10 16 0.00 0.00
9:56 pm 21:56 Clear 61 16.1 41 5 48 48 SSE 18 30 29.93 1014 10 16 0.00 0.00
10:56 pm 22:56 Clear 60 15.6 42 5.6 51 51 SSE 18 30 29.93 1014 10 16 0.00 0.00
11:56 pm 23:56 Clear 60 15.6 43 6.1 53 53 S 22 35 29.93 1013 10 16 0.00 0.00

Powered by AerisWeather